STARLINK-3294 (50829 NORAD) Tracking and Keplerian Element Data

This shows tracking and keplerian element data for the satellite.

Feedback or suggestion? Click here.




ElementValue
Catalog50829
NameSTARLINK-3294
Epoch Orbit382
Epoch Day22.91667824
Epoch Year2022
RAAN119.7757
Inclination53.2175
Eccentricity0.0001127
Argument of Perigee60.9376
Mean Anonmoly246.7986
Mean Motion15.75145439
Decay Rate-0.0082143
L11 50829U 22001AC 22022.91667824 -.00821430 00000+0 -59211-2 0 9999
L22 50829 53.2175 119.7757 0001127 60.9376 246.7986 15.75145439 3827

Live tracking and technical data element details for STARLINK-3294 (NORAD 50829). STARLINK-3294 can be tracked NOW for your location showing map with azimuth and elevation plus other details from your city location.

Track the satellite on the map from your city or location and see movement details for azimuth, elevation, latitude, longitude, range, height, and movement on the map or in text.







IsCatalogInMostPopularTable: catalog: 50829, numindb: 2
Update: records affected: 1



GetName: 50829 STARLINK-3294

Hit Count: updated at: Sun, 23 Jan 2022 23:52:20 GMT